Regional Weather Roundup
Issued by NWS Midland/Odessa, TX

Skip options and go directly to product.
Home | Oldest Version | Previous Version | Current Version | All | Graphics & Text | Save Text | Print | Product List | Glossary On

Skip product version selection by date and time.   
836
ASUS44 KMAF 301610
RWRMAF
MIDLAND AREA WEATHER ROUNDUP
NATIONAL WEATHER SERVICE MIDLAND TX
1100 AM CDT SAT JUL 30 2016

...IN SOUTHWEST TEXAS AND SOUTHEAST NEW MEXICO...

CITY           SKY/WX    TMP DP  RH WIND       PRES   REMARKS
ALPINE         MOSUNNY   81  58  44 S12       30.21S
ANDREWS        FAIR      84  61  45 S12       30.10S
ARTESIA        SUNNY     82  63  51 SE7       30.11S
BIG SPRING     SUNNY     84  64  49 S8        30.10F
CARLSBAD       SUNNY     83  60  45 E6        30.07F
DRYDEN           N/A     83  66  56 E5        30.04F
FORT STOCKTON  SUNNY     83  65  54 SE8       30.07S
GUAD PASS      SUNNY     79  54  41 E9        30.22F
HOBBS          SUNNY     81  63  54 SE9       30.13F
MARFA          SUNNY     74  62  66 S8        30.21R
MIDLAND AIRPK  SUNNY     86  60  41 S9        30.09S
MIDLAND INTL   SUNNY     86  61  42 S17       30.08F
ODESSA         SUNNY     84  60  44 S14       30.10S
PECOS          SUNNY     87  60  40 SE7       30.05S
PRESIDIO       FAIR      82  63  51 SE6       30.08R
SEMINOLE       SUNNY     83  61  46 S8        30.12S
SNYDER           N/A     84  65  51 SW8       30.08S
WINK           SUNNY     83  63  50 S6        30.06S
$$
...OTHER STATIONS IN TEXAS...

CITY           SKY/WX    TMP DP  RH WIND       PRES   REMARKS
ABILENE        SUNNY     87  68  52 S8        30.05F
AMARILLO       SUNNY     78  63  59 S13       30.11F
AUSTIN         MOSUNNY   87  73  62 S13       30.03F
BROWNSVILLE    CLOUDY    92  76  59 SE14G22   30.01F HX 104
CORPUS CHRISTI PTSUNNY   91  75  59 S12       30.01S HX 101
DALLAS FTW     MOSUNNY   91  70  49 SW13      30.00S
DEL RIO        SUNNY     84  69  60 SE14      30.01S
EL PASO        PTSUNNY   82  60  47 SE5       30.09F
HOUSTON INT    MOSUNNY   89  74  60 W7        30.03S
LUBBOCK        PTSUNNY   80  62  54 S9        30.10F
SAN ANGELO     SUNNY     87  66  49 S9        30.05F
SAN ANTONIO    MOSUNNY   86  68  54 S13G20    30.06S
WACO           SUNNY     91  70  49 SW10G18   30.02F
WICHITA FALLS  NOT AVBL
$$
...OTHER LOCATIONS IN NEW MEXICO...

CITY           SKY/WX    TMP DP  RH WIND       PRES   REMARKS
ALAMAGORDO     MOSUNNY   81  55  41 S3        30.13F
ALBUQUERQUE    MOSUNNY   76  53  44 CALM      30.20S
CANNON AFB     SUNNY     79  63  57 S14       30.16S
CLOVIS         SUNNY     77  63  61 S15       30.16R
HOLLOMAN AFB   MOSUNNY   83  58  42 S6        30.11S
ROSWELL        MOSUNNY   82  61  48 S10       30.10F
RUIDOSO          N/A     73  52  46 SE3       30.33F
SANTA FE       SUNNY     76  50  40 S8        30.24F
TRUTH OR CONSE MOSUNNY   80  51  36 CALM      30.15F
TUCUMCARI      SUNNY     81  61  50 SW17      30.11F
$$

USA.gov is the U.S. government's official web portal to all federal, state and local government web resources and services.